GSAT0205 (GALILEO 9) (40889 NORAD) Tracking and Keplerian Element Data

This shows tracking and keplerian element data for the satellite.

Feedback or suggestion? Click here.




ElementValue
Catalog40889
NameGSAT0205 (GALILEO 9)
Epoch Orbit5850
Epoch Day34.05318695
Epoch Year2025
RAAN235.3901
Inclination55.1194
Eccentricity0.0006365
Argument of Perigee46.0333
Mean Anonmoly314.0448
Mean Motion1.70473326
Decay Rate7.4E-07
L11 40889U 15045A 25034.05318695 .00000074 00000+0 00000+0 0 9994
L22 40889 55.1194 235.3901 0006365 46.0333 314.0448 1.70473326 58503



Live tracking and technical data element details for GSAT0205 (GALILEO 9) (NORAD 40889). GSAT0205 (GALILEO 9) can be tracked NOW for your location showing map with azimuth and elevation plus other details from your city location.







IsCatalogInMostPopularTable: catalog: 40889, numindb: 1117
Update: records affected: 1



GetName: 40889 GSAT0205 (GALILEO 9)

Hit Count: updated at: Sat, 06 Dec 2025 12:02:26 GMT